Satellite-Ground Cal/Val Site Overpasses Predictions

Prediction of Satellite NPP Overpassing Cal/Val Site: Antarctic Dome C

Ground Cal/Val Site Location: Latitude: -75.10, Longitude: 123.35; Satellite-Ground Site NADIR distance within 100 km.

Table of predicted overpasses for the next 14.0 days since TLE Epoch: 7/30/2022
Interval Starting Time Ending Time Minimum Distance Time Minimum Distance (km)
1 07/30/2022 07:25:44 07/30/2022 07:26:11 07/30/2022 07:25:58 36.47
2 08/01/2022 15:08:14 08/01/2022 15:08:19 08/01/2022 15:08:16 97.70
3 08/02/2022 14:49:12 08/02/2022 14:49:41 08/02/2022 14:49:27 13.70
4 08/04/2022 07:32:03 08/04/2022 07:32:32 08/04/2022 07:32:17 3.31
5 08/07/2022 14:55:33 08/07/2022 14:56:02 08/07/2022 14:55:47 23.42
6 08/08/2022 14:36:51 08/08/2022 14:37:06 08/08/2022 14:36:59 83.80
7 08/09/2022 07:38:25 08/09/2022 07:38:52 08/09/2022 07:38:38 36.92
8 08/10/2022 07:19:40 08/10/2022 07:20:00 08/10/2022 07:19:50 72.96
